This demonstration page uses our WeatherBlox Daily Observations layout. Learn more.

Left ArrowRight Arrow

Hourly Observations for November 16, 2015

Temp ( °F °C ) Dew Point ( °F °C ) Humidity (%) Winds ( mph kmh ) Pressure ( in mb ) Visibility ( mi km ) Precip ( " mm )
12:53 am 00:53 Clear 38 3.3 35 1.7 89 89 Calm 30.33 1027 10 16 0.00 0.00
1:53 am 01:53 Clear 39 3.9 35 1.7 86 86 Calm 30.33 1027 10 16 0.00 0.00
2:53 am 02:53 Clear 36 2.2 34 1.1 93 93 Calm 30.34 1027 10 16 0.00 0.00
3:53 am 03:53 Clear 37 2.8 34 1.1 89 89 Calm 30.32 1027 10 16 0.00 0.00
4:53 am 04:53 Clear 37 2.8 34 1.1 89 89 Calm 30.32 1027 10 16 0.00 0.00
5:53 am 05:53 Clear 38 3.3 35 1.7 89 89 Calm 30.33 1027 10 16 0.00 0.00
6:53 am 06:53 Mostly Cloudy 39 3.9 35 1.7 86 86 ENE 3 6 30.32 1027 10 16 0.00 0.00
7:53 am 07:53 Mostly Cloudy 43 6.1 37 2.8 80 80 N 3 6 30.34 1027 10 16 0.00 0.00
8:53 am 08:53 Sunny 47 8.3 38 3.3 71 71 NNE 3 6 30.35 1028 10 16 0.00 0.00
9:53 am 09:53 Sunny 51 10.6 38 3.3 61 61 ENE 5 7 30.33 1027 10 16 0.00 0.00
10:53 am 10:53 Mostly Sunny 59 15 38 3.3 46 46 ESE 6 9 30.32 1027 10 16 0.00 0.00
11:53 am 11:53 Partly Cloudy 63 17.2 43 6.1 48 48 VRB 5 7 30.30 1026 10 16 0.00 0.00
12:53 pm 12:53 Partly Cloudy 64 17.8 47 8.3 54 54 SSE 7 11 30.27 1025 10 16 0.00 0.00
1:00 pm 13:00 Cloudy 63 17 46 8 56 56 ESE 5 7 30.24 1024 10 16 0.00 0.00
1:53 pm 13:53 Mostly Cloudy 65 18.3 48 8.9 54 54 VRB 7 11 30.24 1024 10 16 0.00 0.00
2:53 pm 14:53 Mostly Cloudy 66 18.9 49 9.4 54 54 S 6 9 30.22 1023 10 16 0.00 0.00
3:00 pm 15:00 Sunny 66 19 48 9 52 52 E 7 11 30.18 1022 10 16 0.00 0.00
3:53 pm 15:53 Sunny 66 18.9 49 9.4 54 54 VRB 5 7 30.21 1023 10 16 0.00 0.00
4:53 pm 16:53 Sunny 66 18.9 50 10 56 56 E 6 9 30.21 1023 10 16 0.00 0.00
5:53 pm 17:53 Clear 63 17.2 50 10 63 63 E 3 6 30.22 1023 10 16 0.00 0.00
6:53 pm 18:53 Clear 58 14.4 50 10 75 75 E 5 7 30.22 1023 10 16 0.00 0.00
7:53 pm 19:53 Clear 55 12.8 49 9.4 80 80 Calm 30.22 1023 10 16 0.00 0.00
8:53 pm 20:53 Clear 54 12.2 48 8.9 80 80 Calm 30.23 1024 10 16 0.00 0.00
9:53 pm 21:53 Clear 53 11.7 48 8.9 83 83 Calm 30.22 1023 10 16 0.00 0.00
10:53 pm 22:53 Clear 50 10 47 8.3 89 89 Calm 30.21 1023 10 16 0.00 0.00
11:53 pm 23:53 Clear 49 9.4 46 7.8 90 90 Calm 30.21 1023 10 16 0.00 0.00

Powered by AerisWeather